FW9176 Weather Reports


time (UTC)temp
F
wind
direction
speed
knots
gust
knots
rain 1hr
in
rain 24hr
in
rain mn
in
humidity
%
barometer
mb
20260506170109 55 273 0.9 6.1 0.00 0.00 0.00 39 1011.9
20260506164556 55 345 0.9 6.1 0.00 0.00 0.00 38 1011.9
20260506163059 56 326 0.0 6.1 0.00 0.00 0.00 36 1011.8
20260506161551 55 0 0.9 7.0 0.00 0.00 0.00 39 1011.8
20260506160052 54 274 0.0 4.3 0.00 0.00 0.00 36 1011.8
20260506154609 53 277 0.9 8.7 0.00 0.00 0.00 37 1011.8
20260506153053 53 292 0.0 5.2 0.00 0.00 0.00 38 1011.7
20260506151611 53 237 0.9 3.5 0.00 0.00 0.00 36 1011.9
20260506150059 52 44 0.9 7.0 0.00 0.00 0.00 38 1011.8
20260506144604 53 296 0.9 3.5 0.00 0.00 0.00 38 1012.0
20260506143101 52 250 0.9 6.1 0.00 0.00 0.00 38 1012.0
20260506141603 51 0 0.0 1.7 0.00 0.00 0.00 42 1012.0
20260506140101 51 0 0.0 0.9 0.00 0.00 0.00 45 1011.9
20260506134556 49 0 0.0 0.9 0.00 0.05 0.00 47 1011.7
20260506133127 49 0 0.0 0.9 0.00 0.05 0.00 50 1011.4
20260506131555 48 360 0.0 0.0 0.00 0.05 0.00 55 1011.2
20260506130121 47 0 0.0 0.0 0.00 0.05 0.00 60 1011.4
20260506124554 46 0 0.0 0.0 0.00 0.13 0.00 64 1011.1
20260506123050 45 0 0.0 0.9 0.00 0.13 0.00 66 1011.0
20260506121553 44 0 0.0 0.9 0.00 0.13 0.00 69 1010.8
20260506120053 42 0 0.0 0.0 0.00 0.13 0.00 71 1010.8
20260506114556 41 0 0.0 0.0 0.00 0.14 0.00 73 1010.8
20260506113050 40 0 0.0 0.0 0.00 0.14 0.00 73 1010.6
20260506111553 40 0 0.0 0.9 0.00 0.14 0.00 74 1010.4
20260506110051 40 0 0.0 0.0 0.00 0.14 0.00 74 1010.3
20260506104614 40 0 0.0 0.0 0.00 0.14 0.00 73 1010.0
20260506103052 40 0 0.0 0.0 0.00 0.14 0.00 71 1009.7
20260506101553 41 0 0.0 0.0 0.00 0.14 0.00 70 1009.5
20260506100055 41 0 0.0 0.0 0.00 0.14 0.00 68 1009.6
20260506094552 42 0 0.0 0.0 0.00 0.14 0.00 66 1009.6
20260506093052 42 0 0.0 0.0 0.00 0.14 0.00 65 1009.8
20260506091555 42 0 0.0 0.0 0.00 0.14 0.00 65 1009.5
20260506090057 43 0 0.0 0.0 0.00 0.14 0.00 63 1009.7
20260506084553 43 0 0.0 0.0 0.00 0.14 0.00 60 1009.6
20260506083058 44 0 0.0 0.0 0.00 0.14 0.00 57 1009.5
20260506081558 45 0 0.0 0.9 0.00 0.14 0.00 56 1009.5
20260506073054 46 0 0.0 0.9 0.00 0.14 0.00 54 1009.1
20260506071606 47 0 0.0 0.9 0.00 0.14 0.00 54 1009.0
20260506061551 49 0 0.0 2.6 0.00 0.14 0.00 48 1008.9
20260506044608 52 288 0.0 1.7 0.00 0.14 0.14 43 1008.3
20260506043056 52 0 0.0 3.5 0.00 0.14 0.14 42 1008.4
20260506041555 52 0 0.0 1.7 0.00 0.14 0.14 45 1008.4
20260506040052 52 259 0.0 2.6 0.00 0.14 0.14 46 1008.6
20260506034557 52 0 0.0 0.9 0.00 0.14 0.14 47 1008.2
20260506033056 52 248 0.0 0.0 0.00 0.14 0.14 46 1008.3
20260506031555 52 0 0.0 1.7 0.00 0.14 0.14 46 1007.9
20260506030054 52 0 0.0 1.7 0.00 0.14 0.14 46 1007.8
20260506024549 52 0 0.0 0.9 0.00 0.14 0.14 46 1007.8
20260506023056 53 259 0.0 0.9 0.00 0.14 0.14 46 1007.8
20260506021558 53 0 0.0 0.9 0.00 0.14 0.14 46 1007.6
20260506020050 53 0 0.0 0.9 0.00 0.14 0.14 44 1007.5
20260506014551 53 0 0.0 0.9 0.00 0.14 0.14 44 1007.2
20260506013051 53 0 0.0 0.0 0.00 0.14 0.14 43 1007.1
20260506011554 54 0 0.0 0.9 0.00 0.14 0.14 41 1006.8
20260506010056 54 0 0.0 0.9 0.00 0.14 0.14 41 1006.6
20260506004548 54 0 0.0 4.3 0.00 0.14 0.14 39 1006.5
20260506003054 54 293 0.0 2.6 0.00 0.14 0.14 39 1006.3
20260506001604 55 0 0.0 3.5 0.00 0.14 0.14 38 1006.4
20260506000053 55 0 0.0 4.3 0.00 0.14 0.14 38 1006.1
20260505234610 55 0 0.0 4.3 0.00 0.14 0.14 38 1006.2
20260505233051 55 262 0.0 2.6 0.00 0.14 0.14 37 1006.5
20260505231551 56 46 0.9 3.5 0.00 0.14 0.14 36 1006.4
20260505230053 56 273 0.0 2.6 0.00 0.14 0.14 37 1006.4
20260505224552 56 285 0.0 1.7 0.00 0.14 0.14 37 1006.5
20260505223104 56 243 0.9 6.1 0.00 0.14 0.14 35 1006.7
20260505221551 56 0 0.9 5.2 0.00 0.14 0.14 35 1006.5
20260505220055 56 293 0.9 4.3 0.00 0.14 0.14 33 1006.8
20260505214555 56 269 0.0 4.3 0.00 0.14 0.14 34 1006.8
20260505213054 56 274 1.7 5.2 0.00 0.14 0.14 33 1006.9
20260505211605 56 346 0.0 4.3 0.00 0.14 0.14 37 1006.7
20260505210054 56 319 1.7 5.2 0.00 0.14 0.14 34 1006.7
20260505204547 55 0 0.0 3.5 0.00 0.14 0.14 36 1006.8
20260505203116 55 245 0.9 4.3 0.00 0.14 0.14 35 1007.1
20260505201552 55 288 0.0 7.0 0.00 0.14 0.14 35 1007.1
20260505200053 55 0 0.0 2.6 0.00 0.14 0.14 38 1007.2
20260505194554 56 0 0.9 6.1 0.00 0.14 0.14 36 1007.1
20260505193052 56 280 0.0 2.6 0.00 0.14 0.14 39 1007.2
20260505191557 56 0 0.0 4.3 0.00 0.14 0.14 38 1007.3
20260505190051 56 0 0.9 6.1 0.00 0.14 0.14 39 1007.3
20260505184600 57 285 0.9 5.2 0.00 0.14 0.14 38 1007.3
20260505183059 57 241 1.7 7.0 0.00 0.14 0.14 36 1007.2
20260505181556 57 289 0.0 2.6 0.00 0.14 0.14 36 1007.2
20260505174548 57 258 0.9 4.3 0.00 0.14 0.14 36 1007.0
20260505173056 56 294 0.9 3.5 0.00 0.14 0.14 39 1006.9
20260505171555 57 258 0.9 4.3 0.00 0.14 0.14 42 1006.9